Racine, WI

1:48 PM CDT on March 28, 2017 (GMT -0500)
Batten

Weather History for KRAC - July, 2013

Change the Weather History Date:

Friday, July 26, 2013

  Actual Average Record
Temperature  
Mean Temperature 66 °F -  
Max Temperature 71 °F 79 °F 101 °F (1955)
Min Temperature 63 °F 63 °F 49 °F (1962)
Cooling Degree Days 2    
Growing Degree Days 16 (Base 50)    
Moisture  
Dew Point 62 °F    
Average Humidity 86    
Maximum Humidity 94    
Minimum Humidity 65    
Precipitation  
Precipitation 0.53 in - - ()
Sea Level Pressure  
Sea Level Pressure 29.95 in    
Wind  
Wind Speed 9 mph (SSW)    
Max Wind Speed 17 mph    
Max Gust Speed 30 mph    
Visibility 7 miles    
Events Rain    
Averages and records for this station are not official NWS values.
T = Trace of Precipitation, MM = Missing Value Source: NWS Daily Summary

Daily Weather History Graph

Daily Weather History Graph

Search for Another Location

Airport or City:

Trip Planner

Search our weather history database for the weather conditions in past years. The results will help you decide how hot, cold, wet, or windy it might be!

Date:

Astronomy

Jul. 26, 2013 Rise Set
Actual Time 5:36 AM CDT 8:18 PM CDT
Civil Twilight 5:04 AM CDT 8:50 PM CDT
Nautical Twilight 4:23 AM CDT 9:31 PM CDT
Astronomical Twilight 3:35 AM CDT 10:18 PM CDT
Moon 10:23 PM CDT (7/26) 10:20 AM CDT (7/26)
Length of Visible Light 15h 46m
Length of Day
14h 41m
Waning Gibbous, 80% of the Moon is Illuminated
Jul 26
Waning Gibbous
Jul 29
Last Quarter
Aug 6
New
Aug 14
First Quarter
Aug 20
Full

Hourly Weather History & Observations

Time (CDT) Temp. Dew Point Humidity Pressure Visibility Wind Dir Wind Speed Gust Speed Precip Events Conditions
12:53 AM 70.0 °F 57.9 °F 65% 30.00 in 10.0 mi SSW 6.9 mph - N/A   Clear
1:53 AM 68.0 °F 57.9 °F 70% 29.99 in 10.0 mi SSW 6.9 mph - N/A   Clear
2:53 AM 66.0 °F 57.9 °F 75% 30.01 in 10.0 mi SSW 4.6 mph - N/A   Clear
3:53 AM 68.0 °F 57.9 °F 70% 29.99 in 10.0 mi South 5.8 mph - N/A   Clear
4:53 AM 68.0 °F 57.9 °F 70% 29.99 in 10.0 mi South 5.8 mph - N/A   Overcast
5:53 AM 68.0 °F 57.9 °F 70% 29.99 in 10.0 mi South 8.1 mph - N/A   Overcast
6:53 AM 68.0 °F 59.0 °F 73% 29.99 in 10.0 mi SW 9.2 mph - N/A   Overcast
7:53 AM 69.1 °F 61.0 °F 75% 30.00 in 10.0 mi SW 11.5 mph - N/A   Overcast
8:53 AM 69.1 °F 61.0 °F 75% 30.00 in 10.0 mi SSW 11.5 mph 18.4 mph N/A   Overcast
9:53 AM 68.0 °F 63.0 °F 84% 29.99 in 10.0 mi South 6.9 mph - 0.00 in   Overcast
10:53 AM 68.0 °F 63.0 °F 84% 29.99 in 6.0 mi SSW 9.2 mph - 0.00 in Rain Light Rain
11:10 AM 66.2 °F 62.6 °F 88% 29.99 in 9.0 mi SW 10.4 mph 29.9 mph 0.00 in Rain Light Rain
11:33 AM 64.4 °F 60.8 °F 88% 29.99 in 2.5 mi SSW 17.3 mph 27.6 mph 0.02 in Rain Light Rain
11:48 AM 64.4 °F 62.6 °F 94% 29.98 in 4.0 mi SSW 16.1 mph 25.3 mph 0.03 in Rain Light Rain
11:53 AM 64.9 °F 62.1 °F 90% 29.98 in 1.8 mi SSW 15.0 mph 26.5 mph 0.07 in Rain Heavy Rain
12:08 PM 64.4 °F 62.6 °F 94% 29.98 in 3.0 mi SSW 16.1 mph 25.3 mph 0.03 in Rain Light Rain
12:17 PM 64.4 °F 62.6 °F 94% 29.97 in 1.8 mi SSW 12.7 mph 21.9 mph 0.06 in Rain Heavy Rain
12:46 PM 64.4 °F 62.6 °F 94% 29.96 in 3.0 mi SSW 11.5 mph 23.0 mph 0.18 in Rain Light Rain
12:53 PM 64.9 °F 62.1 °F 90% 29.96 in 9.0 mi SSW 10.4 mph - 0.18 in Rain Light Rain
1:23 PM 66.2 °F 62.6 °F 88% 29.95 in 6.0 mi SSW 13.8 mph 19.6 mph 0.01 in Rain Light Rain
1:30 PM 66.2 °F 62.6 °F 88% 29.95 in 2.5 mi SSW 13.8 mph 21.9 mph 0.02 in Rain Light Rain
1:41 PM 66.2 °F 62.6 °F 88% 29.94 in 3.0 mi SSW 15.0 mph 23.0 mph 0.02 in Rain Light Rain
1:53 PM 66.0 °F 63.0 °F 90% 29.94 in 6.0 mi SSW 11.5 mph 20.7 mph 0.02 in Rain Light Rain
2:30 PM 64.4 °F 62.6 °F 94% 29.94 in 1.8 mi SSW 11.5 mph - 0.06 in Rain Rain
2:42 PM 64.4 °F 62.6 °F 94% 29.93 in 0.8 mi SSW 12.7 mph 17.3 mph 0.19 in Rain Heavy Rain
2:53 PM 64.9 °F 63.0 °F 93% 29.92 in 1.2 mi SSW 12.7 mph - 0.25 in Rain Rain
2:57 PM 64.4 °F 62.6 °F 94% 29.92 in 3.0 mi SSW 12.7 mph - 0.00 in Rain Light Rain
3:24 PM 66.2 °F 64.4 °F 94% 29.91 in 10.0 mi SSW 10.4 mph 18.4 mph 0.00 in   Overcast
3:53 PM 66.9 °F 64.0 °F 90% 29.91 in 10.0 mi SSW 12.7 mph 21.9 mph 0.00 in   Overcast
4:53 PM 68.0 °F 64.0 °F 87% 29.91 in 10.0 mi SW 8.1 mph - N/A   Overcast
5:36 PM 68.0 °F 64.4 °F 88% 29.90 in 9.0 mi South 6.9 mph - 0.00 in Rain Light Rain
5:45 PM 68.0 °F 64.4 °F 88% 29.91 in 6.0 mi South 4.6 mph - 0.00 in Rain Light Rain
5:53 PM 68.0 °F 64.9 °F 90% 29.90 in 6.0 mi South 5.8 mph - 0.00 in Rain Light Rain
6:23 PM 69.8 °F 66.2 °F 88% 29.88 in 8.0 mi Variable 3.5 mph - 0.01 in Rain Light Rain
6:53 PM 70.0 °F 64.9 °F 84% 29.88 in 10.0 mi WSW 4.6 mph - 0.01 in   Clear
7:53 PM 66.0 °F 61.0 °F 84% 29.88 in 10.0 mi WSW 5.8 mph - N/A   Clear
8:53 PM 64.0 °F 61.0 °F 90% 29.88 in 10.0 mi West 6.9 mph - N/A   Clear
9:53 PM 63.0 °F 61.0 °F 93% 29.90 in 10.0 mi West 4.6 mph - N/A   Partly Cloudy
10:53 PM 63.0 °F 61.0 °F 93% 29.88 in 9.0 mi West 3.5 mph - N/A   Clear
11:53 PM 63.0 °F 59.0 °F 87% 29.89 in 10.0 mi West 4.6 mph - N/A   Clear